User: anonymous   Login
Location: Dumpton Point
(51.3500°N, 1.4433°E)
Time: 00:32:06
(UTC+00:00)
Language:

Cosmos 1408 - Orbit

View from above orbital plane
View from above orbital plane
View from above satellite
View from above satellite

Ground track
Ground track

The orbit data is extracted from the following two-line orbital elements,

1 13552U 82092A   20188.47660313 +.00000630 +00000-0 +21685-4 0  9991
2 13552 082.5677 259.2775 0019513 069.4257 290.9073 15.27848479066953
Epoch (UTC): 06 July 2020 11:26:18
Eccentricity: 0.0019513
inclination: 82.5677°
perigee height: 469 km
apogee height: 495 km
right ascension of ascending node: 259.2775°
argument of perigee: 69.4257°
revolutions per day: 15.27848479
mean anomaly at epoch: 290.9073°
orbit number at epoch: 6695

The dashed part of the orbit path shows where the satellite is in the earth's shadow,  

DLR